TimeEDT,TemperatureF,Dew PointF,Humidity,Sea Level PressureIn,VisibilityMPH,Wind Direction,Wind SpeedMPH,Gust SpeedMPH,PrecipitationIn,Events,Conditions,WindDirDegrees,DateUTC
12:53 AM,73.9,72.0,93,29.60,10.0,Calm,Calm,-,N/A,,Overcast,0,2013-07-24 04:53:00
1:53 AM,73.9,72.0,93,29.60,10.0,Calm,Calm,-,N/A,,Overcast,0,2013-07-24 05:53:00
2:53 AM,73.9,72.0,93,29.60,10.0,South,3.5,-,N/A,,Overcast,170,2013-07-24 06:53:00
3:53 AM,73.0,71.1,93,29.60,10.0,Calm,Calm,-,N/A,,Partly Cloudy,0,2013-07-24 07:53:00
4:53 AM,73.0,71.1,93,29.60,10.0,Calm,Calm,-,N/A,,Mostly Cloudy,0,2013-07-24 08:53:00
5:53 AM,72.0,70.0,93,29.61,10.0,Calm,Calm,-,N/A,,Clear,0,2013-07-24 09:53:00
6:53 AM,75.0,71.1,87,29.63,10.0,Calm,Calm,-,N/A,,Clear,0,2013-07-24 10:53:00
7:53 AM,77.0,69.1,76,29.65,10.0,WNW,3.5,-,N/A,,Clear,300,2013-07-24 11:53:00
8:53 AM,79.0,68.0,69,29.67,10.0,North,6.9,-,N/A,,Partly Cloudy,360,2013-07-24 12:53:00
9:53 AM,80.1,66.9,64,29.69,-9999.0,WNW,8.1,-,N/A,,Mostly Cloudy,300,2013-07-24 13:53:00
10:53 AM,81.0,66.9,62,29.70,10.0,North,8.1,-,N/A,,Unknown,350,2013-07-24 14:53:00
11:53 AM,-9999,-9999,N/A,29.73,10.0,WNW,9.2,-,N/A,,Mostly Cloudy,300,2013-07-24 15:53:00
12:53 PM,80.1,64.0,58,29.73,10.0,North,-9999.0,-,N/A,,Overcast,0,2013-07-24 16:53:00
1:53 PM,82.9,64.9,54,29.73,10.0,NNW,8.1,-,N/A,,Mostly Cloudy,340,2013-07-24 17:53:00
2:53 PM,82.0,63.0,52,29.75,10.0,NNW,9.2,18.4,N/A,,Overcast,330,2013-07-24 18:53:00
3:53 PM,80.1,61.0,52,29.76,10.0,WNW,8.1,-,N/A,,Overcast,290,2013-07-24 19:53:00
4:53 PM,80.1,61.0,52,29.77,10.0,NNW,13.8,17.3,N/A,,Overcast,330,2013-07-24 20:53:00
5:53 PM,79.0,59.0,50,29.78,10.0,NNW,11.5,-,N/A,,Clear,340,2013-07-24 21:53:00
6:53 PM,78.1,57.0,48,29.80,10.0,North,11.5,18.4,N/A,,Clear,350,2013-07-24 22:53:00
7:53 PM,75.0,55.9,51,29.84,10.0,NW,9.2,-,N/A,,Clear,320,2013-07-24 23:53:00
8:53 PM,73.0,55.9,55,29.88,10.0,NW,6.9,-,N/A,,Clear,310,2013-07-25 00:53:00
9:53 PM,70.0,55.9,61,29.91,10.0,NW,6.9,-,N/A,,Clear,320,2013-07-25 01:53:00
10:53 PM,69.1,55.0,61,29.93,10.0,NNW,8.1,-,N/A,,Mostly Cloudy,330,2013-07-25 02:53:00
11:53 PM,68.0,55.9,65,29.94,10.0,NNW,9.2,-,N/A,,Clear,340,2013-07-25 03:53:00